SCP
0 0 0 0 0 0 0 0 0 0 0 0 0 0 0 0 0 0 0 0 0 0 0 0 0 0 0 0 0 0 0 0 0 0 0 0 0 0 0 0 0 0 0 0 0 0 0
0 0 0 0 0 0 0 0 0 0 0 0 0 0 0 0 0 0 0 0 0 0 0 0 0 0 0 0 0 0 0 0 0 0 0 0 0 0 0 0 0 0 0 0 0 0 0
0 0 0 0 0 0 0 0 0 0 0 0 0 0 0 0 0 0 0 0 0 0 0 0 0 0 0 0 0 0 0 0 0 0 0 0 0 0 0 0 0 0 0 0 0 0 0
0 0 0 0 0 0 0 0 0 0 0 0 0 0 0 0 0 0 0 0 0 0 0 -0 -0 0 0 0 0 0 0 0 0 0 0 0 0 0 0 0 0 0 0 0 0 0 0
0 0 0 0 0 0 0 0 0 0 0 0 0 0 0 0 0 0 0 0 0 0 -0 0 0 0 0 0 0 -0 -0 0 0 0 0 0 0 0 0 0 0 0 0 0 0 0 0
0 0 0 0 0 0 0 0 0 0 0 0 0 0 0 0 0 0 0 0 0 -0 0 0 0 0 0 0 0 0 0 0 0 0 0 0 0 0 0 0 0 0 0 0 0 0 0
0 0 0 0 0 0 0 0 0 0 0 0 0 0 0 0 0 0 0 0 0 -0 0 0 0 0 0 0 0 0 0 0 0 0 0 0 0 0 0 0 0 0 0 0 0 0 0
0 0 0 0 0 0 0 0 0 0 0 0 0 0 0 0 0 0 0 0 0 0 0 0 0 0 0 0 0 0 0 0 0 0 0 0 0 0 0 0 0 0 0 0 0 0 0
0 0 0 0 0 0 0 0 0 0 0 0 0 0 0 0 0 0 0 0 0 0 0 0 0 0 0 -0 0 0 0 0 0 0 0 0 0 0 0 0 0 0 0 0 0 0 0
0 0 0 0 0 0 0 0 0 0 0 0 0 0 0 0 0 0 0 0 0 0 0 0 0 -0 0 -0 -0 -0 0 0 0 0 0 -0 0 0 0 0 0 0 0 0 0 0 0
0 0 0 0 0 0 0 0 0 0 0 0 0 0 0 0 0 0 0 0 0 0 0 0 0 0 0 0 -0 -0 0 0 0 0 0 0 0 0 0 0 0 0 0 0 0 0 0
0 0 0 0 0 0 0 0 0 0 0 0 0 0 0 0 0 0 0 0 0 0 0 0 0 0 -0 0 0 -0 -0 0 0 0 0 0 -0 -0 0 0 0 0 0 0 0 0 0
0 0 0 0 0 0 0 0 0 0 0 0 0 0 0 0 0 0 0 0 0 0 0 0 0 0 0 0 0 0 0 0 0 0 0 0 -0 -0 -0 -0 0 0 0 0 0 0 0
0 0 0 0 0 0 0 0 0 0 0 0 0 0 0 0 0 0 0 0 0 0 0 0 0 -0 0 -0 -0 0 0 0 -0 0 0 0 0 -0 -0 0 0 0 0 0 0 0 0
0 0 0 0 0 0 0 0 0 0 0 0 0 0 0 0 0 0 0 0 0 0 0 0 -0 0 0 0 -0 0 0 0 -0 -0 0 0 0 0 0 0 0 0 0 0 0 0 0
0 0 0 0 0 0 0 0 0 0 0 0 0 0 0 0 0 0 0 0 0 0 0 0 0 0 0 0 0 -0 0 -0 -0 -0 -0 0 0 0 0 0 0 0 0 0 0 0 0
0 0 0 0 0 0 0 0 0 0 0 0 0 0 0 0 0 0 0 0 0 -0 0 0 0 0 0 0 0 -0 -0 0 -0 -0 -0 0 0 0 0 0 0 0 0 0 0 -0 0
0 0 0 0 0 0 0 0 0 0 0 0 0 0 0 0 0 0 0 0 -0 -0 -0 0 0 0 0 0 -0 -0 -0 -0 -0 -0 -0 0 0 0 0 0 0 0 0 0 0 0 0
0 0 0 0 0 0 0 0 0 0 0 0 0 0 0 0 0 0 0 0 -0 0 -0 0 0 0 0 -0 -0 -0 0 -0 -0 -0 -0 -0 0 0 0 0 0 0 0 0 0 0 0
0 0 0 0 0 0 0 0 0 -0 0 0 0 0 0 0 0 0 0 0 0 0 -0 -0 -0 0 -0 0 -0 -0 0 -0 0 0 -0 -0 0 0 0 0 0 0 0 0 0 0 0
0 0 0 0 0 0 0 0 -0 -0 0 0 0 0 0 0 0 0 0 0 -0 0 0 0 0 -0 -0 -0 0 -0 -0 0 -0 -0 -0 -0 -0 0 0 0 0 0 0 0 0 0 0
0 0 0 0 0 0 0 0 -0 -0 0 0 0 0 0 0 0 0 0 0 -0 -0 -0 -0 0 -0 -0 -0 -0 -0 -0 -0 0 0 -0 -0 -0 0 0 0 0 0 0 0 0 0 0
0 0 0 0 0 0 0 0 -0 0 0 0 0 0 0 0 0 0 0 -0 -0 -0 -0 0 -0 0 0 -0 -0 -0 -0 0 0 0 0 -0 -0 0 0 0 0 0 0 0 0 0 0
0 0 0 0 0 0 0 -0 -0 0 0 0 0 0 0 0 0 0 0 -0 -0 -0 -0 -0 0 -0 -0 -0 -0 0 0 -0 -0 -0 0 0 0 0 0 0 0 -0 0 0 0 0 0
0 0 0 0 0 0 0 -0 0 0 0 0 0 0 0 0 0 0 -0 -0 -0 -0 -0 -0 0 0 -0 -0 -0 -0 -0 0 -0 0 0 -0 0 0 0 0 0 0 0 0 0 0 0
0 0 0 0 0 0 0 -0 0 0 0 0 0 0 0 0 0 0 0 0 -0 -0 -0 0 0 0 0 0 0 0 0 0 0 0 0 0 0 0 0 0 0 0 0 0 0 0 0
0 0 0 0 0 0 0 -0 0 0 0 0 0 0 0 0 -0 -0 0 0 0 0 0 0 -0 -0 0 0 0 0 0 0 0 0 0 0 0 0 0 0 0 0 0 0 0 0 0
0 0 0 0 0 0 -0 -0 -0 0 0 0 0 0 0 0 0 0 0 0 -0 0 0 0 -0 -0 0 0 0 0 0 0 0 0 0 0 0 0 0 0 0 0 0 0 0 0 0
0 0 0 0 0 0 -0 -0 -0 0 0 0 0 0 -0 0 0 0 -0 -0 -0 0 0 0 -0 -0 -0 0 0 0 0 0 -0 -0 0 0 0 0 0 0 0 0 -0 0 0 0 0
Wind_Speed_500mb
36 35 38 38 38 38 41 42 42 43 46 43 48 52 57 57 58 61 62 64 63 61 59 56 53 49 47 23 61 61 41 42 44 51 26 40 47 35 24 13 34 27 4 32 63 54 37
33 39 38 39 38 44 43 44 41 42 44 51 49 51 55 56 60 62 66 67 67 65 62 52 50 47 43 43 66 32 28 48 64 61 54 46 38 58 16 32 28 12 45 47 43 44 32
36 35 37 37 42 44 48 48 47 46 46 48 53 57 55 58 60 64 66 69 70 69 59 51 37 41 48 99 58 59 58 47 50 47 48 48 50 25 13 12 48 39 28 33 35 28 16
37 37 38 40 37 42 46 48 53 52 51 56 61 60 57 60 65 68 71 72 75 64 72 52 40 38 45 55 54 39 33 50 43 55 56 50 42 52 25 24 13 9 7 35 26 14 15
39 39 40 38 37 41 42 47 49 52 52 59 62 59 61 62 66 72 75 77 70 76 57 27 30 32 37 28 23 17 22 30 51 54 49 38 38 32 12 15 10 15 20 18 19 14 15
38 41 44 38 38 41 45 48 49 52 54 62 58 58 59 63 66 75 73 72 64 67 21 29 15 14 37 35 26 38 35 37 46 58 63 57 27 16 16 22 41 34 8 13 14 20 31
40 39 40 43 44 39 47 49 53 53 56 60 57 61 62 65 68 73 70 65 57 27 26 45 60 73 106 100 92 81 60 78 55 42 44 63 36 41 57 52 48 43 25 39 27 25 9
38 41 44 45 49 46 46 47 50 52 55 56 58 61 64 65 68 67 52 42 61 44 51 52 74 87 98 90 84 97 61 47 32 33 36 41 52 55 56 44 42 37 43 43 15 16 27
40 42 42 45 47 49 53 51 54 53 53 56 58 63 63 67 71 55 58 60 30 46 26 46 64 43 35 8 34 50 23 37 42 50 49 46 55 54 47 41 42 45 44 43 29 6 26
44 44 44 44 46 51 55 51 57 56 57 55 61 63 67 70 56 62 70 48 46 42 11 18 9 10 7 14 12 33 17 18 14 46 45 35 42 37 47 55 45 47 42 46 28 15 30
46 45 46 51 51 49 59 54 55 60 57 61 62 67 69 63 68 60 50 42 41 32 11 13 10 7 39 5 56 50 45 19 27 40 20 16 10 53 39 51 53 40 39 37 29 33 29
51 51 53 48 49 53 57 57 56 58 59 64 64 71 72 73 72 33 36 38 26 5 15 12 17 20 24 44 43 40 25 28 22 24 36 48 45 8 18 27 37 39 12 32 31 24 32
42 53 55 52 52 52 55 57 59 59 59 64 66 74 73 71 46 24 30 27 6 6 14 14 27 41 34 44 41 10 9 7 3 11 20 33 45 42 24 19 20 28 26 18 23 26 29
46 46 60 55 55 54 58 60 58 64 60 65 70 73 73 33 24 23 21 7 3 11 16 36 32 43 29 40 11 11 11 7 6 12 8 13 17 28 31 45 27 22 32 19 24 8 11
48 48 55 52 57 56 60 60 62 60 61 69 71 73 68 20 19 22 15 4 11 10 18 20 43 22 9 5 7 10 6 6 7 1 6 9 13 2 15 18 26 13 26 21 5 6 5
49 49 51 58 55 55 59 58 58 58 63 66 68 67 33 21 18 26 5 12 9 17 37 30 40 15 10 7 6 5 6 6 5 6 8 3 18 6 2 12 9 17 10 5 7 23 26
48 49 51 57 56 57 59 63 60 60 61 60 52 30 13 22 39 13 5 13 16 47 48 13 29 31 20 12 10 7 10 15 2 8 5 8 12 7 15 14 26 13 14 6 5 10 7
49 51 50 54 56 55 58 60 61 58 58 56 24 7 28 44 7 3 4 10 48 38 56 28 18 27 21 10 6 6 8 7 25 9 5 13 10 6 5 7 2 9 16 21 10 9 6
55 51 49 53 55 57 57 56 63 58 54 54 27 28 23 21 5 7 11 14 16 12 24 13 13 8 6 7 5 8 9 11 16 18 7 9 5 7 7 3 7 5 8 10 6 5 14
54 51 54 54 60 54 62 56 58 59 56 50 16 6 12 8 10 6 7 17 20 23 22 21 29 16 6 8 5 9 9 9 27 23 29 15 7 4 6 8 3 5 4 4 20 9 10
52 49 51 51 59 53 58 56 52 60 57 48 8 9 16 5 8 7 13 7 28 15 9 23 9 17 41 7 9 8 7 17 11 9 11 8 9 4 10 11 6 5 6 5 15 17 11
50 48 48 55 52 57 55 54 61 63 56 51 15 12 9 10 18 6 11 8 23 26 9 21 18 39 21 12 15 32 12 13 11 9 15 10 8 7 8 4 3 2 10 11 8 8 12
47 50 47 53 58 50 54 57 62 57 51 42 37 25 25 8 2 3 7 13 24 30 26 32 37 32 20 14 17 28 42 38 30 18 10 7 4 7 8 8 6 9 10 9 5 13 8
48 48 50 52 54 53 53 62 58 53 48 40 46 41 10 14 6 13 22 24 29 24 27 46 48 6 24 54 59 46 38 41 35 32 19 13 4 3 6 7 7 8 3 3 9 6 10
50 46 49 50 50 52 54 58 58 54 47 37 38 34 20 15 16 16 21 17 32 39 28 32 43 48 47 36 8 13 8 4 8 16 25 27 8 5 3 2 5 6 10 6 7 6 11
52 49 46 53 49 50 55 56 56 50 43 37 39 29 39 15 10 24 5 20 11 16 14 13 50 41 23 4 4 6 5 5 5 2 3 4 7 4 2 3 4 3 10 10 4 4 11
53 47 46 49 48 49 56 53 53 46 41 37 36 29 26 13 9 9 6 8 16 14 9 13 25 19 9 5 5 5 4 3 7 7 7 5 4 5 7 5 4 5 21 4 4 8 26
50 47 46 46 47 48 53 50 52 46 38 35 34 23 19 12 38 24 23 23 24 24 7 21 21 6 6 9 6 7 5 7 5 3 7 7 7 5 5 6 4 33 2 8 7 19 27
48 46 45 45 45 46 51 48 46 39 31 32 31 29 24 21 33 51 53 37 32 30 28 6 7 12 9 5 6 7 5 7 5 6 6 7 6 4 8 6 6 16 18 20 19 16 21
Wind_Direction_500mb
22 18 17 12 12 1 8 5 357 356 351 348 348 347 343 342 340 337 334 330 327 325 322 319 316 318 320 288 255 267 268 254 265 284 254 222 220 219 226 211 225 248 271 241 241 246 244
14 9 8 3 4 3 4 355 353 350 348 347 346 340 341 344 341 337 333 331 328 325 322 319 310 309 301 265 283 288 285 268 262 260 252 228 227 232 264 227 240 245 226 249 264 257 244
10 7 0 359 354 354 356 353 349 349 350 346 339 340 342 340 337 333 330 329 327 326 326 324 303 302 273 253 265 272 269 267 263 256 241 238 235 215 225 258 248 241 261 263 243 249 233
7 359 360 353 354 345 345 344 343 348 345 339 339 342 341 336 333 332 330 327 324 326 327 311 294 281 258 271 286 294 303 263 251 244 252 246 231 236 241 266 304 260 232 240 244 192 225
356 352 350 345 345 340 338 336 338 338 339 336 339 339 337 334 332 330 329 326 328 329 327 329 303 250 264 289 287 296 283 289 250 234 235 236 234 234 212 211 288 218 249 229 251 209 203
355 352 350 347 337 341 335 335 336 337 337 332 334 334 332 331 332 327 326 323 332 332 308 301 288 278 257 268 274 280 272 286 291 256 249 234 228 221 203 199 223 224 212 239 192 200 201
348 346 346 343 342 341 334 334 332 332 333 335 331 331 330 331 328 329 331 330 339 328 301 292 265 270 276 289 291 293 295 287 270 268 227 223 225 223 220 212 223 229 228 242 242 238 230
352 348 342 342 340 339 339 336 336 332 332 331 329 330 329 331 331 333 334 325 319 302 303 287 272 262 267 278 288 298 297 278 262 253 252 216 219 221 226 220 224 223 231 246 269 227 228
351 347 341 337 336 334 334 332 336 338 332 330 329 329 328 329 328 332 325 325 320 311 287 293 277 269 271 266 251 294 304 281 244 250 247 251 226 220 212 214 214 222 222 231 223 190 247
347 340 335 335 336 334 334 336 334 331 333 332 330 330 328 332 330 321 322 330 317 312 275 281 258 253 195 268 258 318 255 319 243 233 247 243 250 227 216 216 209 224 216 229 226 219 242
338 336 338 338 342 334 332 338 334 334 333 329 330 329 331 333 316 315 325 329 319 317 296 271 281 297 319 334 317 312 282 268 274 237 214 238 213 200 208 213 205 227 220 226 225 230 242
334 335 338 341 336 333 334 335 334 329 329 329 331 328 333 332 324 337 329 324 318 50 253 281 306 309 323 315 314 306 306 239 261 237 235 252 254 280 237 245 205 221 154 218 225 224 228
333 332 334 336 336 330 333 333 330 336 328 330 330 330 333 328 319 331 335 331 338 178 329 281 317 314 318 300 310 275 298 281 246 306 223 251 249 244 222 255 243 212 182 214 217 220 238
331 330 333 337 333 333 328 332 335 332 327 332 330 333 335 340 327 331 324 37 214 250 249 293 301 298 285 295 239 278 284 278 305 264 276 210 298 170 193 209 209 211 196 197 218 206 230
331 330 331 332 331 331 329 332 333 337 327 332 332 336 337 337 331 333 315 41 225 277 310 297 308 290 302 215 295 325 257 246 177 216 274 296 252 209 175 175 176 184 207 220 82 349 118
327 326 327 329 332 330 333 328 333 332 330 335 337 336 334 332 325 323 250 254 228 268 296 295 293 244 272 247 337 319 289 234 229 134 272 329 301 229 174 108 257 219 160 232 242 223 232
324 325 328 329 333 331 331 326 331 332 332 335 340 327 325 319 318 298 224 231 270 294 301 280 280 279 262 300 225 240 258 285 242 305 329 336 244 316 159 186 175 179 207 200 168 158 182
326 325 325 328 330 325 332 322 330 334 336 334 331 295 308 307 343 283 228 215 303 295 304 287 266 267 260 265 264 268 270 251 333 325 314 210 271 298 287 288 34 200 200 183 186 218 215
324 319 324 324 326 330 330 325 328 333 338 331 307 289 297 293 259 279 291 280 276 297 311 298 281 290 256 291 296 243 274 291 334 343 303 333 328 301 307 324 31 230 208 200 86 82 202
322 318 318 326 323 333 323 331 324 331 335 329 316 295 292 233 255 231 292 299 311 296 287 291 294 283 297 306 288 282 280 297 329 299 319 279 233 306 308 295 193 302 305 242 215 233 210
316 321 320 323 323 327 329 329 323 325 331 327 266 243 241 277 273 234 297 265 299 316 268 297 306 334 322 296 301 288 290 314 297 309 357 44 316 246 282 257 242 229 249 268 246 257 248
319 313 324 324 327 325 328 325 327 329 330 314 275 273 268 266 276 253 283 275 294 318 286 308 314 313 305 291 257 295 297 302 268 335 5 339 290 339 287 43 156 247 347 314 300 318 270
316 318 318 324 323 325 323 326 331 330 333 314 312 296 250 237 262 71 243 286 299 307 297 294 304 310 304 260 265 264 271 264 260 286 288 260 257 340 280 333 348 41 330 340 23 30 322
316 316 317 320 326 324 325 330 332 333 333 317 312 318 316 286 202 262 285 288 289 296 290 299 302 249 290 311 307 286 262 256 254 251 230 264 4 286 278 346 33 234 126 323 80 51 15
316 313 317 320 319 323 327 333 329 332 331 324 319 312 282 270 224 275 262 280 302 301 292 288 296 306 304 312 286 327 326 335 254 212 210 218 220 286 103 221 124 36 3 6 356 343 11
307 313 316 318 324 321 327 329 332 335 332 326 324 317 298 265 228 249 261 276 282 304 289 269 312 319 313 268 255 263 281 264 310 66 125 182 207 247 355 96 45 255 315 209 228 354 358
310 307 313 318 321 319 326 331 335 332 330 327 328 328 331 305 287 281 222 276 292 280 290 303 333 325 353 298 272 270 309 265 14 39 337 344 25 216 253 92 357 304 315 177 32 307 328
309 304 309 316 317 318 327 330 333 332 329 324 324 320 318 285 293 280 276 276 281 289 285 310 333 339 326 355 327 346 319 15 48 16 353 21 329 14 15 72 17 343 11 56 310 326 323
307 300 307 311 315 318 327 328 331 334 334 322 321 320 306 272 271 295 295 294 282 284 281 287 272 290 329 334 350 313 317 347 9 10 358 42 4 352 29 60 70 62 72 28 16 330 337
Wind_Speed_850mb
36 35 38 38 38 38 41 42 42 43 46 43 48 52 57 57 58 61 62 64 63 61 59 56 53 49 47 23 61 61 41 42 44 51 26 40 47 35 24 13 34 27 4 32 63 54 37
33 39 38 39 38 44 43 44 41 42 44 51 49 51 55 56 60 62 66 67 67 65 62 52 50 47 43 43 66 32 28 48 64 61 54 46 38 58 16 32 28 12 45 47 43 44 32
36 35 37 37 42 44 48 48 47 46 46 48 53 57 55 58 60 64 66 69 70 69 59 51 37 41 48 99 58 59 58 47 50 47 48 48 50 25 13 12 48 39 28 33 35 28 16
37 37 38 40 37 42 46 48 53 52 51 56 61 60 57 60 65 68 71 72 75 64 72 52 40 38 45 55 54 39 33 50 43 55 56 50 42 52 25 24 13 9 7 35 26 14 15
39 39 40 38 37 41 42 47 49 52 52 59 62 59 61 62 66 72 75 77 70 76 57 27 30 32 37 28 23 17 22 30 51 54 49 38 38 32 12 15 10 15 20 18 19 14 15
38 41 44 38 38 41 45 48 49 52 54 62 58 58 59 63 66 75 73 72 64 67 21 29 15 14 37 35 26 38 35 37 46 58 63 57 27 16 16 22 41 34 8 13 14 20 31
40 39 40 43 44 39 47 49 53 53 56 60 57 61 62 65 68 73 70 65 57 27 26 45 60 73 106 100 92 81 60 78 55 42 44 63 36 41 57 52 48 43 25 39 27 25 9
38 41 44 45 49 46 46 47 50 52 55 56 58 61 64 65 68 67 52 42 61 44 51 52 74 87 98 90 84 97 61 47 32 33 36 41 52 55 56 44 42 37 43 43 15 16 27
40 42 42 45 47 49 53 51 54 53 53 56 58 63 63 67 71 55 58 60 30 46 26 46 64 43 35 8 34 50 23 37 42 50 49 46 55 54 47 41 42 45 44 43 29 6 26
44 44 44 44 46 51 55 51 57 56 57 55 61 63 67 70 56 62 70 48 46 42 11 18 9 10 7 14 12 33 17 18 14 46 45 35 42 37 47 55 45 47 42 46 28 15 30
46 45 46 51 51 49 59 54 55 60 57 61 62 67 69 63 68 60 50 42 41 32 11 13 10 7 39 5 56 50 45 19 27 40 20 16 10 53 39 51 53 40 39 37 29 33 29
51 51 53 48 49 53 57 57 56 58 59 64 64 71 72 73 72 33 36 38 26 5 15 12 17 20 24 44 43 40 25 28 22 24 36 48 45 8 18 27 37 39 12 32 31 24 32
42 53 55 52 52 52 55 57 59 59 59 64 66 74 73 71 46 24 30 27 6 6 14 14 27 41 34 44 41 10 9 7 3 11 20 33 45 42 24 19 20 28 26 18 23 26 29
46 46 60 55 55 54 58 60 58 64 60 65 70 73 73 33 24 23 21 7 3 11 16 36 32 43 29 40 11 11 11 7 6 12 8 13 17 28 31 45 27 22 32 19 24 8 11
48 48 55 52 57 56 60 60 62 60 61 69 71 73 68 20 19 22 15 4 11 10 18 20 43 22 9 5 7 10 6 6 7 1 6 9 13 2 15 18 26 13 26 21 5 6 5
49 49 51 58 55 55 59 58 58 58 63 66 68 67 33 21 18 26 5 12 9 17 37 30 40 15 10 7 6 5 6 6 5 6 8 3 18 6 2 12 9 17 10 5 7 23 26
48 49 51 57 56 57 59 63 60 60 61 60 52 30 13 22 39 13 5 13 16 47 48 13 29 31 20 12 10 7 10 15 2 8 5 8 12 7 15 14 26 13 14 6 5 10 7
49 51 50 54 56 55 58 60 61 58 58 56 24 7 28 44 7 3 4 10 48 38 56 28 18 27 21 10 6 6 8 7 25 9 5 13 10 6 5 7 2 9 16 21 10 9 6
55 51 49 53 55 57 57 56 63 58 54 54 27 28 23 21 5 7 11 14 16 12 24 13 13 8 6 7 5 8 9 11 16 18 7 9 5 7 7 3 7 5 8 10 6 5 14
54 51 54 54 60 54 62 56 58 59 56 50 16 6 12 8 10 6 7 17 20 23 22 21 29 16 6 8 5 9 9 9 27 23 29 15 7 4 6 8 3 5 4 4 20 9 10
52 49 51 51 59 53 58 56 52 60 57 48 8 9 16 5 8 7 13 7 28 15 9 23 9 17 41 7 9 8 7 17 11 9 11 8 9 4 10 11 6 5 6 5 15 17 11
50 48 48 55 52 57 55 54 61 63 56 51 15 12 9 10 18 6 11 8 23 26 9 21 18 39 21 12 15 32 12 13 11 9 15 10 8 7 8 4 3 2 10 11 8 8 12
47 50 47 53 58 50 54 57 62 57 51 42 37 25 25 8 2 3 7 13 24 30 26 32 37 32 20 14 17 28 42 38 30 18 10 7 4 7 8 8 6 9 10 9 5 13 8
48 48 50 52 54 53 53 62 58 53 48 40 46 41 10 14 6 13 22 24 29 24 27 46 48 6 24 54 59 46 38 41 35 32 19 13 4 3 6 7 7 8 3 3 9 6 10
50 46 49 50 50 52 54 58 58 54 47 37 38 34 20 15 16 16 21 17 32 39 28 32 43 48 47 36 8 13 8 4 8 16 25 27 8 5 3 2 5 6 10 6 7 6 11
52 49 46 53 49 50 55 56 56 50 43 37 39 29 39 15 10 24 5 20 11 16 14 13 50 41 23 4 4 6 5 5 5 2 3 4 7 4 2 3 4 3 10 10 4 4 11
53 47 46 49 48 49 56 53 53 46 41 37 36 29 26 13 9 9 6 8 16 14 9 13 25 19 9 5 5 5 4 3 7 7 7 5 4 5 7 5 4 5 21 4 4 8 26
50 47 46 46 47 48 53 50 52 46 38 35 34 23 19 12 38 24 23 23 24 24 7 21 21 6 6 9 6 7 5 7 5 3 7 7 7 5 5 6 4 33 2 8 7 19 27
48 46 45 45 45 46 51 48 46 39 31 32 31 29 24 21 33 51 53 37 32 30 28 6 7 12 9 5 6 7 5 7 5 6 6 7 6 4 8 6 6 16 18 20 19 16 21
Wind_Direction_850mb
22 18 17 12 12 1 8 5 357 356 351 348 348 347 343 342 340 337 334 330 327 325 322 319 316 318 320 288 255 267 268 254 265 284 254 222 220 219 226 211 225 248 271 241 241 246 244
14 9 8 3 4 3 4 355 353 350 348 347 346 340 341 344 341 337 333 331 328 325 322 319 310 309 301 265 283 288 285 268 262 260 252 228 227 232 264 227 240 245 226 249 264 257 244
10 7 0 359 354 354 356 353 349 349 350 346 339 340 342 340 337 333 330 329 327 326 326 324 303 302 273 253 265 272 269 267 263 256 241 238 235 215 225 258 248 241 261 263 243 249 233
7 359 360 353 354 345 345 344 343 348 345 339 339 342 341 336 333 332 330 327 324 326 327 311 294 281 258 271 286 294 303 263 251 244 252 246 231 236 241 266 304 260 232 240 244 192 225
356 352 350 345 345 340 338 336 338 338 339 336 339 339 337 334 332 330 329 326 328 329 327 329 303 250 264 289 287 296 283 289 250 234 235 236 234 234 212 211 288 218 249 229 251 209 203
355 352 350 347 337 341 335 335 336 337 337 332 334 334 332 331 332 327 326 323 332 332 308 301 288 278 257 268 274 280 272 286 291 256 249 234 228 221 203 199 223 224 212 239 192 200 201
348 346 346 343 342 341 334 334 332 332 333 335 331 331 330 331 328 329 331 330 339 328 301 292 265 270 276 289 291 293 295 287 270 268 227 223 225 223 220 212 223 229 228 242 242 238 230
352 348 342 342 340 339 339 336 336 332 332 331 329 330 329 331 331 333 334 325 319 302 303 287 272 262 267 278 288 298 297 278 262 253 252 216 219 221 226 220 224 223 231 246 269 227 228
351 347 341 337 336 334 334 332 336 338 332 330 329 329 328 329 328 332 325 325 320 311 287 293 277 269 271 266 251 294 304 281 244 250 247 251 226 220 212 214 214 222 222 231 223 190 247
347 340 335 335 336 334 334 336 334 331 333 332 330 330 328 332 330 321 322 330 317 312 275 281 258 253 195 268 258 318 255 319 243 233 247 243 250 227 216 216 209 224 216 229 226 219 242
338 336 338 338 342 334 332 338 334 334 333 329 330 329 331 333 316 315 325 329 319 317 296 271 281 297 319 334 317 312 282 268 274 237 214 238 213 200 208 213 205 227 220 226 225 230 242
334 335 338 341 336 333 334 335 334 329 329 329 331 328 333 332 324 337 329 324 318 50 253 281 306 309 323 315 314 306 306 239 261 237 235 252 254 280 237 245 205 221 154 218 225 224 228
333 332 334 336 336 330 333 333 330 336 328 330 330 330 333 328 319 331 335 331 338 178 329 281 317 314 318 300 310 275 298 281 246 306 223 251 249 244 222 255 243 212 182 214 217 220 238
331 330 333 337 333 333 328 332 335 332 327 332 330 333 335 340 327 331 324 37 214 250 249 293 301 298 285 295 239 278 284 278 305 264 276 210 298 170 193 209 209 211 196 197 218 206 230
331 330 331 332 331 331 329 332 333 337 327 332 332 336 337 337 331 333 315 41 225 277 310 297 308 290 302 215 295 325 257 246 177 216 274 296 252 209 175 175 176 184 207 220 82 349 118
327 326 327 329 332 330 333 328 333 332 330 335 337 336 334 332 325 323 250 254 228 268 296 295 293 244 272 247 337 319 289 234 229 134 272 329 301 229 174 108 257 219 160 232 242 223 232
324 325 328 329 333 331 331 326 331 332 332 335 340 327 325 319 318 298 224 231 270 294 301 280 280 279 262 300 225 240 258 285 242 305 329 336 244 316 159 186 175 179 207 200 168 158 182
326 325 325 328 330 325 332 322 330 334 336 334 331 295 308 307 343 283 228 215 303 295 304 287 266 267 260 265 264 268 270 251 333 325 314 210 271 298 287 288 34 200 200 183 186 218 215
324 319 324 324 326 330 330 325 328 333 338 331 307 289 297 293 259 279 291 280 276 297 311 298 281 290 256 291 296 243 274 291 334 343 303 333 328 301 307 324 31 230 208 200 86 82 202
322 318 318 326 323 333 323 331 324 331 335 329 316 295 292 233 255 231 292 299 311 296 287 291 294 283 297 306 288 282 280 297 329 299 319 279 233 306 308 295 193 302 305 242 215 233 210
316 321 320 323 323 327 329 329 323 325 331 327 266 243 241 277 273 234 297 265 299 316 268 297 306 334 322 296 301 288 290 314 297 309 357 44 316 246 282 257 242 229 249 268 246 257 248
319 313 324 324 327 325 328 325 327 329 330 314 275 273 268 266 276 253 283 275 294 318 286 308 314 313 305 291 257 295 297 302 268 335 5 339 290 339 287 43 156 247 347 314 300 318 270
316 318 318 324 323 325 323 326 331 330 333 314 312 296 250 237 262 71 243 286 299 307 297 294 304 310 304 260 265 264 271 264 260 286 288 260 257 340 280 333 348 41 330 340 23 30 322
316 316 317 320 326 324 325 330 332 333 333 317 312 318 316 286 202 262 285 288 289 296 290 299 302 249 290 311 307 286 262 256 254 251 230 264 4 286 278 346 33 234 126 323 80 51 15
316 313 317 320 319 323 327 333 329 332 331 324 319 312 282 270 224 275 262 280 302 301 292 288 296 306 304 312 286 327 326 335 254 212 210 218 220 286 103 221 124 36 3 6 356 343 11
307 313 316 318 324 321 327 329 332 335 332 326 324 317 298 265 228 249 261 276 282 304 289 269 312 319 313 268 255 263 281 264 310 66 125 182 207 247 355 96 45 255 315 209 228 354 358
310 307 313 318 321 319 326 331 335 332 330 327 328 328 331 305 287 281 222 276 292 280 290 303 333 325 353 298 272 270 309 265 14 39 337 344 25 216 253 92 357 304 315 177 32 307 328
309 304 309 316 317 318 327 330 333 332 329 324 324 320 318 285 293 280 276 276 281 289 285 310 333 339 326 355 327 346 319 15 48 16 353 21 329 14 15 72 17 343 11 56 310 326 323
307 300 307 311 315 318 327 328 331 334 334 322 321 320 306 272 271 295 295 294 282 284 281 287 272 290 329 334 350 313 317 347 9 10 358 42 4 352 29 60 70 62 72 28 16 330 337